WetterOnline ( https://www.wetteronline.de )

Wetter aktuell Feldberger Seenlandschaft

Aktuelles Wetter: Feldberg (115m)

6-stündlich | Neueste Meldungen
Ortszeit Temperatur Wetter
Mo, 21.10. 20:00 14.3° C bedeckt
Mo, 21.10. 14:00 15.2° C wolkig
Mo, 21.10. 8:00 12.1° C bedeckt
Mo, 21.10. 2:00 12.8° C bedeckt
So, 20.10. 20:00 13.6° C bedeckt
So, 20.10. 14:00 16.0° C bewölkt
So, 20.10. 8:00 10.4° C bedeckt
So, 20.10. 2:00 11.1° C bedeckt
Ortszeit Temperatur Wetter
Di, 22.10. 0:30 10.9° C Nebel
Di, 22.10. 0:20 10.9° C Nebel
Di, 22.10. 0:10 11.2° C Nebel
Di, 22.10. 0:00 10.9° C bewölkt
Mo, 21.10. 23:50 10.9° C bewölkt
Mo, 21.10. 23:40 11.0° C wolkig
Mo, 21.10. 23:30 12.6° C leicht bewölkt
Mo, 21.10. 23:00 12.4° C leicht bewölkt
Mo, 21.10. 22:30 13.5° C bedeckt
Mo, 21.10. 22:00 13.6° C bewölkt
Mo, 21.10. 21:30 13.7° C bedeckt
Ortszeit Relative Feuchte Sichtweite
Mo, 21.10. 20:00 95% 10 km
Mo, 21.10. 14:00 85% 11 km
Mo, 21.10. 8:00 99% 3.2 km
Mo, 21.10. 2:00 94% 2.1 km
So, 20.10. 20:00 94% 27 km
So, 20.10. 14:00 74% 40 km
So, 20.10. 8:00 95% 30 km
So, 20.10. 2:00 92% 40 km
Ortszeit Relative Feuchte Sichtweite
Di, 22.10. 0:30 100% 100 m
Di, 22.10. 0:20 100% -
Di, 22.10. 0:10 100% -
Di, 22.10. 0:00 100% 2.0 km
Mo, 21.10. 23:50 100% -
Mo, 21.10. 23:40 99% -
Mo, 21.10. 23:30 100% 2.1 km
Mo, 21.10. 23:00 97% 3.2 km
Mo, 21.10. 22:30 98% 7 km
Mo, 21.10. 22:00 97% 6 km
Mo, 21.10. 21:30 97% 8 km
Ortszeit Niederschlagsmenge Niederschlagsart
Mo, 21.10. 20:00 0.0 l/m2 in 12 Std. -
Mo, 21.10. 14:00 0.0 l/m2 in 6 Std. -
Mo, 21.10. 8:00 0.1 l/m2 in 12 Std. Regen
Mo, 21.10. 2:00 0.0 l/m2 in 6 Std. -
So, 20.10. 20:00 0.1 l/m2 in 12 Std. Regen
So, 20.10. 14:00 0.0 l/m2 in 6 Std. -
So, 20.10. 8:00 0.0 l/m2 in 12 Std. -
So, 20.10. 2:00 0.0 l/m2 in 6 Std. -
Ortszeit Niederschlagsmenge Niederschlagsart
Di, 22.10. 0:30 0.0 l/m2 in 1 Std. -
Di, 22.10. 0:20 keine Meldung -
Di, 22.10. 0:10 keine Meldung -
Di, 22.10. 0:00 0.0 l/m2 in 1 Std. -
Mo, 21.10. 23:50 keine Meldung -
Mo, 21.10. 23:40 keine Meldung -
Mo, 21.10. 23:30 0.0 l/m2 in 1 Std. -
Mo, 21.10. 23:00 0.0 l/m2 in 1 Std. -
Mo, 21.10. 22:30 0.0 l/m2 in 1 Std. -
Mo, 21.10. 22:00 0.0 l/m2 in 1 Std. -
Mo, 21.10. 21:30 0.0 l/m2 in 1 Std. -
Ortszeit Stärke Spitze Richtung
km/h Bft. km/h Grad Sektor
Mo, 21.10. 20:00 6 1 17 240° SW
Mo, 21.10. 14:00 4 1 22 150° SO
Mo, 21.10. 8:00 9 2 30 60° NO
Mo, 21.10. 2:00 9 2 19 90° O
So, 20.10. 20:00 4 1 14 70° O
So, 20.10. 14:00 6 1 13 90° O
So, 20.10. 8:00 6 1 17 180° S
So, 20.10. 2:00 9 2 20 180° S
Ortszeit Stärke Spitze Richtung
km/h Bft. km/h Grad Sektor
Di, 22.10. 0:30 4 1 4 300° NW
Di, 22.10. 0:20 4 1 - 300° NW
Di, 22.10. 0:10 4 1 - 260° W
Di, 22.10. 0:00 0 0 7 - -
Mo, 21.10. 23:50 0 0 - 170° S
Mo, 21.10. 23:40 0 0 - 310° NW
Mo, 21.10. 23:30 0 0 7 - -
Mo, 21.10. 23:00 4 1 11 280° W
Mo, 21.10. 22:30 7 2 11 250° W
Mo, 21.10. 22:00 7 2 11 250° W
Mo, 21.10. 21:30 7 2 11 250° W
Ortszeit Untergrenze Bedeckung Gattung
total tief tief mittel hoch
Mo, 21.10. 20:00 2700 m 8/8 8/8 - - -
Mo, 21.10. 14:00 180 m 8/8 1/8 - - -
Mo, 21.10. 8:00 60 m 8/8 8/8 - - -
Mo, 21.10. 2:00 3600 m 8/8 8/8 - - -
So, 20.10. 20:00 3300 m 8/8 8/8 - - -
So, 20.10. 14:00 2100 m 7/8 7/8 - - -
So, 20.10. 8:00 1800 m 8/8 8/8 - - -
So, 20.10. 2:00 4800 m 8/8 8/8 - - -
Ortszeit Bedeckungsgrad in Achtel und Wolkenuntergrenze
Di, 22.10. 0:30 2(3000m) 8(8700m)
Di, 22.10. 0:20 2(3000m) 8(8700m)
Di, 22.10. 0:10 4(3000m) 7(9000m) 8(9000m)
Di, 22.10. 0:00 7(3000m) 7(9000m) 8(10500m)
Mo, 21.10. 23:50 7(3000m) 7(9000m) 8(10500m)
Mo, 21.10. 23:40 5(3000m) 6(9000m)
Mo, 21.10. 23:30 4(9000m) 5(10500m) 6(10500m)
Mo, 21.10. 23:00 2(3300m) 5(9000m)
Mo, 21.10. 22:30 8(3300m)
Mo, 21.10. 22:00 1(2100m) 4(2700m) 8(3300m)
Mo, 21.10. 21:30 8(2700m) 8(3300m)
Ortszeit Luftdruck NN (hPa) Tendenz (hPa in 3 Std.)
Mo, 21.10. 20:00 1020 + 1,4
Mo, 21.10. 14:00 1018 + 0,8
Mo, 21.10. 8:00 1015 + 2,0
Mo, 21.10. 2:00 1013 - 0,1
So, 20.10. 20:00 1012 + 1,0
So, 20.10. 14:00 1011 - 0,1
So, 20.10. 8:00 1010 + 1,2
So, 20.10. 2:00 1009 0,0
Ortszeit Luftdruck NN (hPa) Tendenz (hPa in 3 Std.)
Di, 22.10. 0:30 1021 + 0,6
Di, 22.10. 0:20 1021 keine Meldung
Di, 22.10. 0:10 1021 keine Meldung
Di, 22.10. 0:00 1021 + 0,7
Mo, 21.10. 23:50 1021 keine Meldung
Mo, 21.10. 23:40 1021 keine Meldung
Mo, 21.10. 23:30 1021 + 0,8
Mo, 21.10. 23:00 1021 + 0,9
Mo, 21.10. 22:30 1021 + 1,3
Mo, 21.10. 22:00 1020 + 1,4
Mo, 21.10. 21:30 1020 + 1,4
Ortszeit Schneehöhe (cm)
Mo, 21.10. 20:00 0
Mo, 21.10. 14:00 0
Mo, 21.10. 8:00 0
Mo, 21.10. 2:00 0
So, 20.10. 20:00 0
So, 20.10. 14:00 0
So, 20.10. 8:00 0
So, 20.10. 2:00 0
Ortszeit Schneehöhe (cm)
Di, 22.10. 0:30 0
Di, 22.10. 0:20 0
Di, 22.10. 0:10 0
Di, 22.10. 0:00 0
Mo, 21.10. 23:50 0
Mo, 21.10. 23:40 0
Mo, 21.10. 23:30 0
Mo, 21.10. 23:00 0
Mo, 21.10. 22:30 0
Mo, 21.10. 22:00 0
Mo, 21.10. 21:30 0
Link zu dieser Seite / Seite empfehlen

Das Wetter in ...